Location: Mont Hereford
(45.0826°N, 71.6017°W)
Time: 07:51:38
(UTC-04:00)

Envisat - Visible Passes

Search period start: 26 April 2018 00:00
Search period end: 06 May 2018 00:00
Orbit: 764 x 766 km, 98.2° (Epoch: 26 April)

Date Brightness Start Highest point End Pass type
(mag) Time Alt. Az. Time Alt. Az. Time Alt. Az.
26 Apr 3.6 20:21:38 10° S 20:26:38 61° W 20:31:41 10° NNW visible
27 Apr 5.6 21:26:08 10° SW 21:29:23 17° W 21:32:40 10° NW visible
28 Apr 4.6 20:47:42 10° SSW 20:52:20 36° W 20:57:00 10° NNW visible
30 Apr 5.4 21:14:19 10° SW 21:18:07 21° W 21:21:58 10° NW visible
01 May 4.2 20:36:18 10° S 20:41:07 44° W 20:46:00 10° NNW visible
02 May 5.8 21:42:02 10° WSW 21:44:01 12° W 21:46:01 10° WNW visible
03 May 5.1 21:02:38 10° SSW 21:06:52 26° W 21:11:07 10° NW visible
04 May 3.8 20:24:57 10° S 20:29:56 56° W 20:34:57 10° NNW visible
05 May 5.6 21:29:45 10° SW 21:32:43 15° W 21:35:42 10° NW visible
